Flag Weather past 2 weeks in Konstanz, Baden-Württemberg, Germany

Now
49 °F

Fog.


Feels Like: 49 °F
Forecast: 41 / 62 °F
Wind: No wind

Location: Konstanz

Current Time: Oct 31, 2014 at 12:26:01 PM

Latest Report: Oct 31, 2014 at 12:00 PM


Visibility: 3 mi

Pressure: 30.36 "Hg

Humidity: 82%

Dew point: 44 °F

Location of KonstanzLocation

Historic Weather in Konstanz — Graph

°F

Konstanz temperature yesterday

Maximum temperature yesterday: 58 °F (at 3:00 PM)
Minimum temperature yesterday: 43 °F (at 2:00 AM)
Average temperature yesterday: 49 °F

Past Weeks' High & Low Weather Summary

 TemperatureHumidityPressure
High72 °F (Oct 20, 3:00 PM)100% (Oct 18, 3:00 AM)30.37 "Hg (Oct 18, 3:00 AM)
Low41 °F (Oct 22, 9:00 AM)53% (Oct 21, 5:00 PM)29.69 "Hg (Oct 21, 8:00 PM)
Average52 °F86%30.16 "Hg
* Reported Oct 16 12:00 Noon — Oct 31 11:00 AM, Konstanz, Weather by CustomWeather, © 2014

Note: Actual official high and low records may vary slightly from our data, if they occured in-between our weather recording intervals... More about our weather records

Advertising

Konstanz weather history for previous 24 hours

 ConditionsComfort  
Time TempWeatherWind HumidityBarometerVisibility
11:00 AM
Oct 31
47 °FFog.1 mph91%30.37 "Hg1 mi
10:00 AM45 °FFog.1 mph96%30.37 "Hg1 mi
9:00 AM44 °FFog.2 mph99%30.37 "Hg0 mi
8:00 AM45 °FFog.2 mph98%30.35 "Hg1 mi
7:00 AM45 °FFog.1 mph99%30.34 "Hg1 mi
6:00 AM45 °FFog.No wind99%30.34 "Hg0 mi
5:00 AM46 °FLow clouds.1 mph100%30.34 "Hg0 mi
4:00 AM46 °FLow clouds.No wind100%30.34 "Hg0 mi
3:00 AM46 °FLow clouds.1 mph100%30.34 "Hg0 mi
2:00 AM45 °FLow clouds.1 mph100%30.34 "Hg0 mi
1:00 AM46 °FFog.2 mph99%30.34 "Hg1 mi
12:00 AM47 °FFog.1 mph100%30.34 "Hg2 mi
11:00 PM
Oct 30
47 °FFog.2 mph98%30.34 "Hg2 mi
10:00 PM48 °FFog.1 mph96%30.33 "Hg4 mi
9:00 PM48 °FPassing clouds.1 mph95%30.32 "Hg6 mi
8:00 PM49 °FClear.2 mph92%30.32 "Hg6 mi
7:00 PM50 °FClear.1 mph89%30.31 "Hg10 mi
6:00 PM52 °FPassing clouds.1 mph81%30.30 "Hg12 mi
5:00 PM54 °FPassing clouds.1 mph76%30.28 "Hg9 mi
4:00 PM56 °FPartly sunny.2 mph73%30.27 "Hg10 mi
3:00 PM58 °FScattered clouds.1 mph65%30.27 "Hg9 mi
2:00 PM56 °FPartly sunny.2 mph71%30.27 "Hg9 mi
1:00 PM54 °FOvercast.3 mph74%30.28 "Hg11 mi
12:00 PM54 °FOvercast.1 mph76%30.28 "Hg11 mi
Weather by CustomWeather, © 2014

See weather overviewHow to use our weather pages